Lapse_Rate
5.2 5.1 5.1 4.8 5.3 5.5 5.7 5.7 5.8 5.9 5.9 5.8 5.7 5.7 5.9 6.0 6.1 6.2 6.2 6.2 6.1 6.0 6.0 5.9 5.8 5.9 5.9 5.9 5.9 5.7 5.6 5.7 5.8 5.6 5.5 5.5 5.8 6.2 6.4 6.6 6.7 6.8 6.9
5.5 5.4 5.1 5.1 5.4 5.5 5.5 5.7 5.8 5.8 5.7 5.6 5.6 5.7 5.9 5.9 6.0 6.2 6.2 6.1 6.2 6.2 6.1 6.0 5.9 5.9 6.2 6.1 6.0 5.8 6.0 5.8 5.7 5.6 5.6 5.4 5.6 6.1 6.4 6.5 6.6 6.8 6.7
5.4 5.1 5.1 5.2 5.4 5.4 5.5 5.5 5.7 5.5 5.4 5.6 5.6 5.8 5.8 5.8 6.0 6.2 6.3 6.3 6.3 6.2 6.2 6.1 6.0 6.0 6.0 6.1 6.3 6.0 5.9 5.8 5.6 5.5 5.6 5.8 5.6 6.0 6.4 6.4 6.4 6.7 6.6
5.3 5.1 5.2 5.3 5.4 5.4 5.4 5.5 5.5 5.3 5.4 5.5 5.7 5.8 5.8 5.7 5.9 6.1 6.3 6.3 6.2 6.1 6.1 5.9 5.8 5.9 5.9 6.1 5.9 6.0 5.8 5.6 5.4 5.5 5.8 5.8 5.6 5.9 6.3 6.3 6.5 6.5 6.3
5.3 5.1 5.3 5.4 5.3 5.3 5.4 5.4 5.3 5.4 5.5 5.6 5.8 5.8 5.8 5.8 5.9 6.1 6.1 6.1 6.1 6.1 6.0 5.9 5.9 6.0 6.0 6.0 6.0 5.8 6.1 5.7 5.6 5.6 5.6 5.7 5.9 6.0 6.1 6.4 6.5 6.4 6.4
5.4 5.2 5.2 5.3 5.3 5.4 5.4 5.4 5.3 5.4 5.4 5.6 5.6 5.7 5.7 5.9 5.9 6.0 6.1 6.1 6.1 6.0 6.1 6.0 6.0 6.0 5.9 5.9 5.9 6.1 6.0 6.0 5.9 5.5 5.8 5.6 5.8 5.8 6.1 6.3 6.4 6.3 6.2
5.4 5.4 5.2 5.3 5.3 5.5 5.5 5.3 5.3 5.4 5.5 5.6 5.7 5.7 5.8 5.9 5.9 6.0 6.1 6.0 6.0 6.1 6.0 5.9 5.8 5.9 5.8 5.7 5.9 6.2 6.1 6.3 5.5 5.9 5.8 5.9 5.9 5.9 6.0 6.2 6.1 6.2 6.1
5.4 5.3 5.2 5.3 5.4 5.5 5.5 5.3 5.4 5.5 5.7 5.8 5.8 5.7 5.8 5.9 5.9 5.9 5.9 5.8 5.9 5.9 5.8 5.8 5.8 5.9 5.8 5.6 5.4 5.6 6.0 6.3 6.1 5.9 5.8 5.8 5.9 6.1 6.2 6.1 6.1 6.0 6.0
5.2 5.3 5.4 5.4 5.5 5.5 5.4 5.3 5.4 5.7 5.8 5.7 5.6 5.7 5.7 5.7 5.8 5.9 5.8 5.9 5.9 5.8 5.7 5.5 5.5 5.5 5.7 5.5 5.3 5.3 6.0 6.5 6.1 5.9 6.0 5.9 6.1 6.2 6.1 6.1 6.1 6.1 6.2
5.2 5.4 5.5 5.5 5.5 5.5 5.5 5.4 5.4 5.7 5.5 5.3 5.4 5.5 5.4 5.7 5.6 5.7 5.9 5.9 5.7 5.6 5.6 5.6 5.6 5.1 5.2 5.4 5.7 5.9 6.1 6.3 6.2 5.8 5.8 6.0 5.9 6.1 6.1 6.0 6.1 6.3 6.3
4.9 5.4 5.6 5.5 5.4 5.5 5.6 5.4 5.4 5.4 5.3 5.2 5.4 5.2 5.5 5.8 5.5 5.6 5.8 5.8 5.6 5.5 5.6 5.3 5.5 5.4 4.8 5.1 5.0 5.5 6.0 5.9 5.8 5.7 6.2 6.1 6.1 6.2 6.3 6.3 6.3 6.2 6.3
5.0 5.4 5.6 5.6 5.5 5.6 5.5 5.3 5.4 5.2 5.4 5.1 5.6 5.0 5.9 5.8 5.2 5.6 5.5 5.5 5.6 5.7 5.6 5.5 5.5 5.7 5.6 4.9 5.0 4.9 5.5 5.9 6.1 5.7 6.1 6.4 6.4 6.4 6.4 6.5 6.4 6.4 6.3
4.8 5.4 5.6 5.6 5.5 5.5 5.5 5.4 5.3 5.2 5.3 5.3 5.6 5.6 5.9 5.5 5.2 5.0 5.8 5.6 5.6 5.4 5.4 5.7 5.3 5.8 5.5 4.9 4.8 4.7 5.1 5.3 5.2 5.4 5.6 6.0 6.3 6.4 6.4 6.4 6.5 6.5 6.4
4.6 4.6 5.1 5.7 5.5 5.4 5.4 5.3 5.3 5.3 5.3 5.0 5.2 5.3 5.8 4.8 5.5 5.4 6.0 6.1 5.5 5.8 5.3 5.3 5.8 5.6 4.8 4.7 4.8 4.8 4.7 5.1 4.7 4.8 5.1 5.5 5.8 6.2 6.2 6.2 6.1 6.1 6.2
4.9 4.8 4.6 5.7 5.4 5.5 5.6 5.3 5.4 4.7 4.9 4.7 5.0 5.3 5.3 5.7 5.9 5.4 5.8 5.6 5.2 5.4 5.3 6.1 5.8 5.1 5.1 5.1 5.0 4.6 4.7 4.5 4.7 4.9 5.1 5.4 5.5 5.7 5.9 6.1 6.2 6.3 6.4
5.0 4.9 4.6 5.7 5.4 5.7 5.9 5.6 5.3 5.0 4.8 5.0 5.1 5.3 5.6 5.1 5.2 5.4 5.3 5.5 5.4 5.3 5.1 5.4 5.2 5.3 5.2 5.3 5.1 4.8 4.8 4.6 4.7 4.8 4.7 5.1 5.1 5.3 5.4 5.5 5.7 6.0 6.1
5.1 5.0 4.8 5.9 5.7 5.8 5.9 5.8 5.8 5.5 5.2 5.2 5.0 5.5 5.4 5.5 5.8 5.8 5.6 5.8 5.5 5.8 5.4 5.4 5.0 5.0 5.3 4.8 4.9 4.6 4.6 4.5 4.7 5.0 4.8 5.1 4.9 5.2 5.3 5.5 5.3 5.7 5.9
5.2 4.9 5.4 5.8 5.9 5.9 5.9 5.8 5.6 5.6 5.6 5.6 5.6 5.8 5.7 5.8 5.8 5.9 5.8 5.6 5.3 5.3 5.5 5.2 5.5 5.1 4.9 4.7 4.9 4.8 4.8 4.6 4.8 4.9 4.9 4.9 5.0 4.9 5.5 5.4 5.4 5.5 5.5
5.4 5.3 5.9 6.0 6.2 6.0 5.9 5.9 5.7 5.7 5.8 5.7 5.7 5.9 5.8 6.0 5.9 5.8 5.5 5.3 5.6 5.6 6.2 5.6 5.5 5.2 4.9 4.7 5.1 4.7 4.6 4.5 4.7 4.3 4.5 4.7 5.0 5.0 5.2 5.5 5.8 6.0 5.9
5.4 5.9 6.0 6.1 6.2 6.1 5.9 5.9 5.8 5.8 5.8 5.8 5.7 5.8 5.9 5.9 5.9 5.8 5.5 5.6 5.6 5.7 5.5 5.5 5.5 5.3 5.0 4.7 4.8 4.6 4.4 4.5 4.8 4.6 4.8 4.9 5.1 5.3 5.1 5.6 6.1 5.7 5.6
5.6 6.4 6.2 6.2 6.2 6.3 6.2 6.1 5.9 5.8 5.8 5.8 5.7 5.8 5.9 5.8 5.9 5.9 5.9 5.3 5.7 5.8 5.7 5.8 5.3 5.0 5.2 5.1 4.6 4.8 4.8 4.8 4.7 4.8 4.9 4.7 4.4 4.7 4.8 5.7 5.8 6.0 5.9
6.5 6.5 6.4 6.4 6.3 6.5 6.3 6.0 5.9 5.8 5.8 5.8 5.7 5.8 6.0 6.1 6.0 6.1 5.8 5.6 5.5 5.4 5.5 5.6 5.6 5.5 5.4 5.3 4.9 4.7 4.7 4.9 4.8 4.7 4.6 4.4 4.4 4.7 5.0 5.3 5.9 5.9 6.0
6.6 6.8 6.6 6.5 6.5 6.5 6.3 6.2 6.0 6.0 6.0 6.0 5.9 6.0 6.1 6.2 6.0 6.2 5.8 5.4 5.5 5.6 5.3 5.4 5.7 5.8 5.9 5.3 5.3 4.8 4.7 4.8 4.7 4.8 4.7 4.8 4.7 5.4 5.1 5.2 5.2 5.7 5.8
6.8 6.7 6.6 6.4 6.5 6.4 6.2 6.3 6.2 6.1 5.9 5.9 6.0 6.0 6.2 6.1 6.2 6.3 5.9 5.8 5.8 5.8 5.7 5.7 5.7 5.7 5.9 5.7 5.4 5.2 4.9 5.0 5.2 4.7 4.6 4.6 4.7 4.8 5.3 5.7 5.5 5.3 5.8
6.8 6.9 6.6 6.5 6.3 6.4 6.2 6.2 6.1 6.1 6.1 6.1 6.1 6.1 6.3 6.3 6.4 6.4 6.3 6.2 6.2 5.8 5.7 5.7 5.7 5.7 5.8 6.0 5.9 5.7 5.4 5.3 5.1 4.9 4.8 4.9 4.7 5.3 4.9 4.6 5.4 5.3 5.2
6.2 6.8 6.7 6.6 6.4 6.5 6.2 6.1 6.3 6.3 6.1 6.1 6.0 6.1 6.3 6.6 6.5 6.4 6.5 6.3 6.2 6.0 5.9 5.7 6.0 5.8 6.0 6.3 6.4 6.2 6.0 5.4 5.1 5.1 5.1 5.2 5.0 4.9 5.1 5.1 4.9 5.2 5.3
Wind_Speed
8 9 7 8 15 16 16 17 16 16 15 18 15 16 16 17 16 16 16 14 14 14 13 13 14 13 12 12 12 11 10 11 11 12 14 13 12 10 7 2 14 16 15
14 13 6 9 13 15 16 17 16 15 17 16 16 14 15 16 15 14 16 14 13 12 12 12 11 11 11 11 11 9 9 9 8 10 11 13 12 11 12 11 17 16 14
14 13 12 10 14 15 16 17 16 16 15 15 14 13 15 15 13 14 15 13 12 11 11 10 9 9 10 9 10 7 8 8 7 10 7 7 13 12 14 15 17 17 15
16 19 18 13 14 15 17 16 16 15 14 15 11 14 15 13 13 14 13 12 11 11 10 9 8 8 8 8 7 6 4 6 5 4 7 7 14 12 11 14 15 16 16
16 21 21 16 15 15 17 16 15 14 14 13 12 13 12 12 12 12 12 12 11 11 10 9 8 7 6 6 6 4 3 2 2 3 9 10 17 12 10 11 14 11 15
13 20 22 18 16 17 16 15 14 13 13 12 11 10 10 11 11 11 12 12 11 11 10 10 9 8 7 6 6 3 3 2 3 4 15 22 17 14 11 15 14 14 14
13 18 22 17 16 16 15 14 13 12 12 11 10 9 9 9 9 10 11 11 11 11 10 10 10 9 8 7 6 4 4 3 8 5 19 19 14 13 12 12 12 13 13
13 22 20 16 17 16 15 14 12 11 10 9 9 9 8 8 8 9 10 11 11 10 9 8 8 7 8 8 6 4 3 5 6 13 19 16 15 13 12 12 12 11 12
20 19 19 18 17 15 14 13 11 10 9 8 8 7 7 6 8 9 9 10 10 9 6 4 4 4 5 7 9 7 4 4 8 14 18 14 12 13 13 11 11 11 11
19 17 16 18 17 15 14 12 11 9 8 7 6 4 3 3 3 8 9 8 8 6 3 3 2 2 3 5 6 5 2 5 7 14 17 16 14 12 12 12 12 11 10
17 16 16 17 17 15 15 13 11 9 8 7 6 4 4 6 7 11 8 8 6 4 1 2 1 3 7 6 6 7 6 10 5 16 15 18 14 12 10 11 10 11 11
18 19 16 14 15 17 16 15 12 12 12 12 7 7 7 10 3 6 7 8 7 4 1 6 8 11 14 10 10 14 10 10 11 15 15 18 14 12 11 10 10 10 9
16 15 17 14 16 15 15 13 12 13 12 14 22 17 7 18 10 4 10 9 8 5 7 4 9 2 7 12 16 13 9 9 13 15 17 19 14 11 12 10 10 9 8
19 18 18 16 10 11 15 12 13 10 12 11 19 23 20 5 5 2 3 6 3 12 11 6 7 4 5 12 12 1 6 15 14 13 15 17 14 11 11 11 10 9 7
15 18 18 16 10 6 6 11 8 6 6 10 10 5 11 3 5 7 7 9 7 13 3 9 5 6 5 7 8 11 7 14 17 14 11 15 14 11 10 11 9 9 9
15 16 17 17 11 7 4 2 1 4 7 3 12 12 7 8 9 2 3 3 10 9 13 5 5 4 2 6 4 6 4 9 16 16 12 10 11 10 10 9 9 8 7
14 15 17 17 13 7 6 2 3 4 8 6 4 15 8 4 8 5 3 3 5 10 11 6 4 2 3 3 4 2 8 6 8 18 14 13 11 9 9 11 10 10 10
19 15 17 15 16 11 7 5 4 9 6 5 9 13 10 4 1 2 4 3 8 8 6 3 4 4 4 5 1 1 2 6 5 16 16 15 15 12 8 9 12 11 10
17 16 16 14 16 16 9 7 9 10 6 7 5 11 14 10 6 2 4 5 5 1 2 3 2 2 4 2 2 4 3 4 4 7 11 16 16 18 15 14 14 13 10
16 15 13 11 12 15 9 7 7 7 4 8 4 4 15 11 8 7 6 5 6 3 2 2 3 3 1 3 3 3 2 2 4 4 6 13 16 14 15 13 11 10 11
17 17 16 13 10 11 10 10 7 8 5 4 4 6 12 11 9 6 4 7 7 3 4 4 2 4 3 2 0 3 1 2 4 3 8 7 15 17 15 14 12 13 10
19 18 17 15 12 12 9 9 8 6 6 6 5 6 11 10 7 7 6 4 2 3 3 1 2 1 3 3 1 1 3 3 1 2 5 5 4 11 8 19 15 13 14
20 19 18 17 14 13 12 7 6 5 4 6 6 5 6 9 12 10 6 6 3 4 4 4 3 1 1 1 2 1 2 2 2 2 3 4 2 5 7 13 13 17 17
20 20 19 18 16 14 13 11 9 8 8 5 5 5 7 15 12 14 11 9 5 3 6 5 4 1 2 3 1 2 2 1 2 1 0 3 3 5 6 7 10 16 17
20 21 19 19 18 15 16 11 11 10 8 7 5 8 7 10 14 11 13 9 5 3 5 6 3 3 0 1 2 2 2 2 2 2 1 3 2 3 5 4 11 12 13
19 20 19 19 18 17 16 17 12 14 10 8 8 6 6 7 8 7 13 9 7 5 6 5 4 5 4 3 1 2 3 2 3 3 2 3 5 4 4 4 5 12 14
Wind_Direction
154 134 111 105 116 118 110 108 108 105 104 92 93 86 83 80 82 84 87 88 90 92 93 89 87 84 77 71 67 73 83 89 90 88 85 82 79 73 65 100 121 98 98
143 144 130 118 122 118 113 115 110 109 99 100 93 93 87 86 86 85 86 88 92 96 94 91 89 89 82 75 72 77 82 86 97 100 106 99 80 63 63 74 97 103 105
142 147 143 126 122 121 122 117 115 105 106 103 101 103 96 90 91 88 86 85 89 92 93 94 94 92 87 84 82 82 84 87 118 122 159 79 91 71 77 90 104 103 104
149 154 135 133 131 132 125 122 116 114 112 106 107 94 92 94 91 93 93 95 92 90 92 95 97 97 99 100 99 97 102 112 134 163 219 171 101 92 86 95 94 100 101
160 145 127 131 137 137 125 122 121 118 110 105 99 99 99 95 88 92 93 92 91 94 93 93 95 95 97 107 110 118 129 178 186 325 84 79 101 102 95 96 102 93 96
169 128 133 139 142 132 128 127 126 121 117 113 109 107 100 97 95 93 95 95 93 91 92 89 90 87 97 99 126 185 218 223 297 149 93 80 89 96 99 89 96 96 97
174 134 136 142 140 134 133 133 130 123 116 117 118 113 105 102 94 99 98 97 95 91 86 82 81 84 99 91 118 178 254 312 110 166 93 93 94 101 101 101 101 103 99
167 141 140 143 141 138 139 137 133 126 124 125 125 122 120 119 109 103 101 101 98 92 86 88 97 111 117 119 129 180 244 304 138 86 96 97 108 105 105 106 99 101 102
151 135 143 149 147 143 140 138 135 134 135 136 140 138 139 138 130 120 110 106 99 93 93 107 128 135 139 148 153 166 204 275 96 120 106 108 108 107 103 109 110 109 111
144 144 149 150 155 157 148 144 142 143 148 153 145 149 133 154 161 137 129 110 108 109 124 105 61 281 216 201 181 169 227 315 290 103 106 122 122 115 115 111 107 112 115
138 153 157 158 159 161 143 150 150 156 174 169 166 151 253 210 186 164 127 134 139 128 156 45 330 235 250 234 232 193 189 221 151 101 109 132 128 128 127 121 115 109 113
151 159 162 162 160 162 157 147 169 178 191 187 126 12 284 230 188 196 156 167 176 150 68 5 350 337 286 216 204 230 190 225 147 117 130 135 137 142 136 134 125 123 118
167 165 162 161 164 173 134 168 178 189 204 177 159 159 281 258 186 176 148 198 194 159 109 311 308 331 347 243 193 222 200 215 138 122 139 137 146 147 152 143 136 133 132
167 169 165 153 169 174 152 174 192 191 197 161 164 179 180 116 266 184 237 233 206 132 164 217 250 285 17 359 10 158 169 76 104 115 145 142 147 161 154 157 154 151 149
181 166 154 151 161 176 181 184 211 178 194 139 140 184 132 237 141 202 179 205 120 115 342 239 226 98 16 341 342 325 70 101 131 125 144 154 149 160 163 168 167 170 170
190 169 145 151 158 167 213 248 315 197 183 257 155 152 153 184 132 258 203 51 129 141 178 263 53 21 220 165 255 312 105 68 117 121 135 161 153 156 169 168 176 181 185
207 166 151 150 160 173 201 221 254 265 232 179 111 136 153 194 136 161 183 125 137 171 179 132 144 285 295 175 191 200 90 78 112 140 143 142 159 161 163 178 176 184 194
181 169 157 172 163 179 185 187 238 252 222 247 180 139 156 195 196 237 46 54 166 252 138 183 207 194 247 225 120 139 80 101 113 130 148 159 152 146 172 183 182 186 196
173 163 163 176 166 169 189 190 215 239 256 237 212 152 162 177 197 281 76 269 248 165 114 179 10 255 212 156 188 138 115 108 130 155 165 133 145 158 169 180 181 176 180
162 161 165 170 163 163 178 202 196 239 222 260 217 203 159 173 187 194 179 233 267 148 110 80 34 16 352 67 46 70 133 164 195 214 116 152 155 143 150 168 174 164 171
167 165 171 172 180 166 177 190 214 204 205 207 256 182 167 174 184 208 204 197 178 139 164 164 133 342 354 105 34 103 94 111 292 184 150 154 148 165 159 172 172 155 162
176 171 173 180 181 176 180 187 207 200 209 191 211 197 169 174 195 204 219 214 158 136 268 198 127 192 199 126 355 189 163 259 157 22 92 87 170 143 130 153 167 151 154
176 175 176 179 185 185 182 191 196 208 222 181 195 198 179 185 199 215 204 268 206 169 176 192 180 227 56 134 106 281 42 204 122 94 85 116 145 117 123 117 159 155 152
182 179 175 180 187 186 193 190 196 206 205 214 184 195 179 190 213 198 194 198 212 194 162 201 177 72 175 189 117 253 94 134 109 28 290 150 174 147 163 155 157 152 166
183 178 177 179 184 187 192 214 192 199 213 204 203 200 191 187 201 211 182 186 188 220 190 167 146 155 185 270 200 178 149 199 149 111 188 222 221 180 171 186 165 163 170
184 178 179 178 185 188 190 206 215 196 213 206 203 204 191 178 187 210 179 187 180 208 173 172 178 155 234 298 270 224 152 192 171 189 192 195 193 183 178 191 152 175 194